Home > Weather > London > Past weeks

Flag for Canada Past Weather in London, Ontario, Canada — Yesterday and Last 2 Weeks

Now
66 °F

Overcast.


Feels Like: 66 °F
Forecast: 65 / 80 °F
Wind: 8 mph from East

Location: London Weather Station

Current Time: Jul 31, 2016 at 5:56:32 AM

Latest Report: Jul 31, 2016 at 5:00 AM


Visibility: 15 mi

Pressure: 29.98 "Hg

Humidity: 78%

Dew Point: 59 °F

Location of LondonLocation

Past Weather in London — Graph

°F

London Temperature Yesterday

Maximum temperature yesterday: 77 °F (at 2:00 PM)
Minimum temperature yesterday: 63 °F (at 7:55 AM)
Average temperature yesterday: 69 °F

High & Low Weather Summary for the Past Weeks

 TemperatureHumidityPressure
High90 °F (Jul 22, 6:00 PM)100% (Jul 16, 6:00 AM)30.30 "Hg (Jul 16, 6:00 AM)
Low48 °F (Jul 20, 5:00 AM)35% (Jul 23, 3:00 PM)29.83 "Hg (Jul 25, 5:00 AM)
Average72 °F73%30.02 "Hg
* Reported Jul 16 4:00 AM — Jul 31 4:00 AM, London, Weather by CustomWeather, © 2016

Note: Actual official high and low records may vary slightly from our data, if they occured in-between our weather recording intervals... More about our weather records

Advertising

London Weather History for the Previous 24 Hours

Scroll right to see more
 ConditionsComfort  
Time TempWeatherWind HumidityBarometerVisibility
4:00 AM
Sun, Jul 31
66 °FMostly cloudy.7 mph78%29.98 "Hg15 mi
3:00 AM66 °FOvercast.7 mph78%29.98 "Hg15 mi
2:00 AM66 °FPartly cloudy.8 mph78%29.98 "Hg15 mi
1:00 AM66 °FMostly cloudy.9 mph73%30.00 "Hg15 mi
12:00 AM68 °FPassing clouds.8 mph69%30.00 "Hg15 mi
11:00 PM
Sat, Jul 30
68 °FMostly cloudy.10 mph64%30.00 "Hg15 mi
10:00 PM68 °FPartly cloudy.8 mph69%30.01 "Hg15 mi
9:00 PM70 °FBroken clouds.8 mph73%30.00 "Hg15 mi
8:00 PM73 °FPassing clouds.9 mph69%29.98 "Hg15 mi
7:00 PM77 °FScattered clouds.13 mph65%29.98 "Hg15 mi
6:00 PM77 °FBroken clouds.9 mph69%29.98 "Hg15 mi
5:00 PM77 °FPartly sunny.13 mph69%29.97 "Hg15 mi
4:00 PM77 °FPartly sunny.15 mph65%29.98 "Hg15 mi
3:00 PM77 °FPartly sunny.14 mph65%29.99 "Hg15 mi
2:00 PM77 °FBroken clouds.15 mph65%30.00 "Hg15 mi
1:00 PM75 °FPartly sunny.14 mph69%30.01 "Hg15 mi
12:00 PM72 °FBroken clouds.16 mph78%30.01 "Hg15 mi
11:00 AM68 °FBroken clouds.17 mph83%30.02 "Hg15 mi
10:00 AM64 °FBroken clouds.12 mph94%30.02 "Hg15 mi
9:00 AM64 °FSprinkles. Cloudy.14 mph94%30.02 "Hg15 mi
8:51 AM63 °FMore clouds than sun.14 mph94%30.02 "Hg15 mi
8:00 AM63 °FRain showers. Fog.13 mph94%30.02 "Hg3 mi
7:55 AM63 °FRain showers. Fog.13 mph94%30.01 "Hg3 mi
7:00 AM64 °FSprinkles. Mostly cloudy.13 mph83%29.99 "Hg15 mi
6:00 AM64 °FOvercast.12 mph83%29.98 "Hg15 mi
5:00 AM64 °FSprinkles. Overcast.13 mph83%29.97 "Hg15 mi
Weather by CustomWeather, © 2016

See weather overviewHow to use our weather pages